Home   Weather   Detmold   Past weeks

Flag for Germany Past Weather in Detmold, North Rhine-Westphalia, Germany — Yesterday and Last 2 Weeks

45 °F

Partly cloudy.

Feels Like: 45 °F
Forecast: 38 / 47 °F
Wind: 1 mph from North

Location: Paderborn / Lippstadt

Current Time: Oct 20, 2016 at 9:43:35 PM

Latest Report: Oct 20, 2016 at 8:50 PM

Visibility: 4 mi

Pressure: 29.92 "Hg

Humidity: 87%

Dew Point: 41 °F

Location of DetmoldLocation

Past Weather in Detmold — Graph


Detmold Temperature Yesterday

Maximum temperature yesterday: 50 °F (at 3:20 PM)
Minimum temperature yesterday: 43 °F (at 5:20 AM)
Average temperature yesterday: 45 °F

High & Low Weather Summary for the Past Weeks

High66 °F (Oct 16, 2:50 PM)94% (Oct 6, 6:50 PM)30.42 "Hg (Oct 6, 6:50 PM)
Low34 °F (Oct 11, 5:20 AM)49% (Oct 16, 2:50 PM)29.68 "Hg (Oct 15, 1:50 AM)
Average48 °F81%30.09 "Hg
* Reported Oct 5 8:20 PM — Oct 20 8:20 PM, Detmold, Weather by CustomWeather, © 2016

Note: Actual official high and low records may vary slightly from our data, if they occured in-between our weather recording intervals... More about our weather records


Detmold Weather History for the Previous 24 Hours

Scroll right to see more
Time TempWeatherWind HumidityBarometerVisibility
8:20 PM
Thu, Oct 20
45 °FPartly cloudy.1 mph87%29.92 "Hg5 mi
7:50 PM43 °FPartly cloudy.1 mph93%29.92 "Hg5 mi
7:20 PM43 °FPassing clouds.1 mph93%29.92 "Hg5 mi
6:50 PM45 °FPassing clouds.2 mph87%29.89 "Hg5 mi
6:20 PM45 °FPassing clouds.1 mph87%29.89 "Hg5 mi
5:50 PM46 °FPartly sunny.1 mph82%29.89 "Hg5 mi
5:20 PM46 °FBroken clouds.2 mph82%29.89 "Hg4 mi
4:50 PM46 °FClear.3 mph76%29.89 "Hg4 mi
4:20 PM46 °FScattered clouds.3 mph76%29.89 "HgN/A
3:50 PM46 °FScattered clouds.3 mph82%29.89 "HgN/A
3:20 PM46 °FScattered clouds.3 mph82%29.89 "Hg5 mi
2:50 PM46 °FBroken clouds.3 mph82%29.89 "Hg5 mi
2:20 PM46 °FBroken clouds.3 mph82%29.89 "Hg5 mi
1:50 PM45 °FBroken clouds.2 mph87%29.89 "Hg4 mi
1:20 PM45 °FBroken clouds.3 mph87%29.89 "Hg4 mi
12:50 PM45 °FBroken clouds.3 mph87%29.92 "Hg4 mi
12:20 PM45 °FBroken clouds.3 mph87%29.92 "Hg4 mi
11:50 AM45 °FBroken clouds.3 mph87%29.92 "Hg4 mi
11:20 AM45 °FPartly sunny.2 mph87%29.89 "Hg4 mi
10:50 AM43 °FPartly sunny.3 mph93%29.89 "Hg4 mi
10:20 AM43 °FPartly sunny.5 mph93%29.89 "Hg4 mi
9:50 AM43 °FPartly sunny.1 mph93%29.89 "Hg4 mi
9:20 AM43 °FLight rain. Partly sunny.3 mph87%29.89 "Hg4 mi
8:50 AM43 °FLight rain. Broken clouds.6 mph87%29.89 "Hg5 mi
8:20 AM43 °FLight rain. Broken clouds.7 mph87%29.89 "Hg5 mi
7:50 AM43 °FLight rain. Partly cloudy.7 mph87%29.89 "Hg5 mi
7:20 AM43 °FLight rain. Partly cloudy.6 mph87%29.89 "Hg5 mi
6:50 AM43 °FRain. Partly cloudy.6 mph87%29.89 "Hg5 mi
6:20 AM43 °FSprinkles. Partly cloudy.3 mph87%29.89 "Hg5 mi
5:50 AM43 °FPassing clouds.3 mph87%29.89 "Hg5 mi
5:20 AM43 °FPassing clouds.6 mph93%29.89 "Hg4 mi
4:50 AM43 °FPassing clouds.8 mph93%29.89 "Hg4 mi
4:20 AM43 °FPassing clouds.9 mph93%29.89 "Hg5 mi
3:50 AM43 °FPassing clouds.6 mph93%29.89 "Hg5 mi
3:20 AM43 °FPassing clouds.6 mph87%29.92 "Hg5 mi
2:50 AM43 °FPassing clouds.6 mph87%29.92 "Hg5 mi
2:20 AM41 °FPassing clouds.5 mph93%29.92 "Hg5 mi
1:50 AM43 °FPartly cloudy.6 mph87%29.92 "Hg5 mi
1:20 AM43 °FLight rain. Passing clouds.5 mph87%29.92 "Hg5 mi
12:50 AM43 °FLight rain. Passing clouds.6 mph93%29.92 "Hg4 mi
12:20 AM43 °FLight rain. Fog.7 mph93%29.92 "Hg2 mi
11:50 PM
Wed, Oct 19
45 °FLight rain. Fog.6 mph87%29.92 "Hg2 mi
11:20 PM45 °FFog.6 mph87%29.92 "Hg3 mi
10:50 PM45 °FFog.7 mph87%29.92 "Hg3 mi
10:20 PM43 °FFog.6 mph93%29.92 "Hg3 mi
9:50 PM43 °FLight rain. Passing clouds.7 mph93%29.92 "Hg3 mi
9:20 PM43 °FLight rain. Passing clouds.8 mph93%29.92 "Hg4 mi
Weather by CustomWeather, © 2016

See weather overviewHow to use our weather pages